Location: Cambridge
(43.3830°N, 80.3170°W)
Time: 08:49:57
(UTC-04:00)

Envisat - Pass Details

Date: 21 March 2019
Orbit: 764 x 766 km, 98.2° (Epoch: 24 April)

Event Time Altitude Azimuth Distance (km) Brightness Sun altitude
Rises 20:14:28 0° 177° (S) 3,218 6.1 -8.0°
Reaches altitude 10° 20:16:48 10° 181° (S) 2,297 5.4 -8.5°
Maximum altitude 20:21:47 57° 260° (W) 904 3.8 -9.4°
Drops below altitude 10° 20:26:48 10° 339° (NNW) 2,313 5.9 -10.2°
Sets 20:29:10 0° 343° (NNW) 3,243 6.6 -10.7°
